Location: Peebles
(55.6412°N, 3.1714°W)
Time: 15:28:55
(UTC+01:00)

DICE 2 - Visible Passes

Search period start: 06 October 2022 00:00
Search period end: 16 October 2022 00:00
Orbit: 423 x 613 km, 101.7° (Epoch: 06 October)

Date Brightness Start Highest point End Pass type
(mag) Time Alt. Az. Time Alt. Az. Time Alt. Az.
06 Oct ? 05:21:53 10° SE 05:24:58 38° ENE 05:27:59 10° N visible
06 Oct ? 19:53:37 10° NNE 19:56:52 48° ESE 20:00:14 10° S visible
06 Oct ? 21:27:48 10° N 21:30:22 21° NW 21:32:59 10° WSW visible
07 Oct ? 05:08:02 10° ESE 05:10:51 27° ENE 05:13:38 10° N visible
07 Oct ? 06:41:32 10° S 06:44:30 31° WSW 06:47:27 10° NW visible
07 Oct ? 19:39:32 10° NE 19:42:37 33° ESE 19:45:48 10° S visible
07 Oct ? 21:13:21 10° N 21:16:16 28° WNW 21:19:16 10° WSW visible
08 Oct ? 04:54:18 10° ESE 04:56:44 20° NE 04:59:09 10° N visible
08 Oct ? 06:27:03 10° S 06:30:13 46° WSW 06:33:21 10° NNW visible
08 Oct ? 19:25:31 10° NE 19:28:17 23° ESE 19:31:09 10° SSE visible
08 Oct ? 20:58:56 10° N 21:02:05 39° WNW 21:05:22 10° SW visible
09 Oct ? 04:40:42 10° E 04:42:36 15° NE 04:44:31 10° NNE visible
09 Oct ? 06:12:40 10° SSE 06:15:55 72° WSW 06:19:09 10° NNW visible
09 Oct ? 19:11:37 10° ENE 19:13:53 17° E 19:16:13 10° SE visible
09 Oct ? 20:44:32 10° NNE 20:47:51 58° WNW 20:51:20 10° SW visible
09 Oct ? 22:20:23 10° NW 22:20:55 10° NW 22:21:26 10° NW visible
10 Oct ? 04:27:25 10° ENE 04:28:29 11° NE 04:29:33 10° NNE visible
10 Oct ? 05:58:22 10° SSE 06:01:36 74° ENE 06:04:50 10° NNW visible
10 Oct ? 20:30:09 10° NNE 20:33:33 86° WNW 20:37:08 10° SSW visible
10 Oct ? 22:05:01 10° NNW 22:06:47 14° NW 22:08:34 10° W visible
11 Oct ? 05:44:10 10° SE 05:47:18 49° ENE 05:50:26 10° NNW visible
11 Oct ? 20:15:47 10° NNE 20:19:12 65° ESE 20:22:46 10° SSW visible
11 Oct ? 21:50:11 10° N 21:52:34 18° NW 21:55:01 10° W visible
12 Oct ? 05:30:03 10° SE 05:32:59 33° ENE 05:35:56 10° N visible
12 Oct ? 20:01:27 10° NNE 20:04:46 43° ESE 20:08:15 10° S visible
12 Oct ? 21:35:29 10° N 21:38:18 24° NW 21:41:12 10° WSW visible
13 Oct ? 05:16:00 10° ESE 05:18:39 24° NE 05:21:20 10° N visible
13 Oct ? 06:49:14 10° S 06:52:14 35° WSW 06:55:15 10° NW visible
13 Oct ? 19:47:09 10° NE 19:50:17 30° ESE 19:53:32 10° SSE visible
13 Oct ? 21:21:12 12° N 21:23:57 33° WNW 21:27:13 10° WSW visible
14 Oct ? 05:02:05 10° E 05:04:20 18° NE 05:06:37 10° N visible
14 Oct ? 06:34:34 10° S 06:37:43 54° WSW 06:40:55 10° NNW visible
14 Oct ? 19:33:48 15° ENE 19:35:43 22° E 19:38:37 10° SSE visible
14 Oct ? 21:08:56 41° NNW 21:09:34 46° WNW 21:13:04 10° SW visible
15 Oct ? 04:48:20 10° E 04:50:01 14° NE 04:51:41 10° NNE visible
15 Oct ? 06:19:59 10° SSE 06:23:12 84° WSW 06:26:29 10° NNW visible
15 Oct ? 19:20:30 15° E 19:21:06 16° E 19:23:23 10° SE visible
15 Oct ? 20:55:36 58° WSW 20:55:36 58° WSW 20:58:46 10° SSW visible
